This demonstration page uses our WeatherBlox Daily Observations layout. Learn more.

Left ArrowRight Arrow

Hourly Observations for June 27, 2019

Temp ( °F °C ) Dew Point ( °F °C ) Humidity (%) Winds ( mph kmh ) Pressure ( in mb ) Visibility ( mi km ) Precip ( " mm )
12:53 am 00:53 Clear 58 14.4 54 12.2 87 87 ESE 9 15 29.89 1012 10 16 0.00 0.00
1:53 am 01:53 Clear 60 15.6 54 12.2 80 80 ESE 12 19 29.88 1012 10 16 0.00 0.00
2:53 am 02:53 Partly Cloudy 60 15.6 53 11.7 78 78 N 6 9 29.91 1013 10 16 0.00 0.00
3:53 am 03:53 Clear 59 15 52 11.1 78 78 NNE 7 11 29.93 1013 10 16 0.00 0.00
4:53 am 04:53 Mostly Clear 58 14.4 53 11.7 84 84 ENE 13 20 29.93 1014 10 16 0.00 0.00
5:53 am 05:53 Sunny 57 13.9 53 11.7 87 87 E 13 20 29.91 1013 10 16 0.00 0.00
6:53 am 06:53 Sunny 62 16.7 54 12.2 75 75 ESE 16 26 29.90 1013 10 16 0.00 0.00
7:53 am 07:53 Sunny 64 17.8 55 12.8 73 73 E 22 35 29.89 1012 10 16 0.00 0.00
8:53 am 08:53 Sunny 66 18.9 56 13.3 70 70 E 20 31 29.89 1012 10 16 0.00 0.00
9:53 am 09:53 Sunny 68 20 57 13.9 68 68 E 20 31 29.89 1012 10 16 0.00 0.00
10:53 am 10:53 Mostly Sunny 68 20 59 15 73 73 SW 12 19 29.94 1014 10 16 0.00 0.00
11:53 am 11:53 Cloudy with Light Rain 66 18.9 59 15 78 78 E 9 15 29.91 1013 10 16 0.00 0.03
12:53 pm 12:53 Mostly Cloudy 69 20.6 59 15 70 70 E 17 28 29.89 1012 10 16 0.00 0.03
1:17 pm 13:17 Cloudy with Nearby Thunderstorms 69 20.6 60 15.6 73 73 E 14 22 29.82 1010 10 16 0.00 0.03
1:32 pm 13:32 Cloudy with Light Rain 72 22.2 62 16.7 71 71 E 17 28 29.81 1010 10 16 0.00 0.03
1:53 pm 13:53 Mostly Cloudy 73 22.8 62 16.7 69 69 E 15 24 29.89 1012 10 16 0.00 0.03
2:53 pm 14:53 Mostly Sunny 77 25 62 16.7 60 60 E 18 30 29.86 1011 10 16 0.00 0.00
3:53 pm 15:53 Partly Cloudy 76 24.4 61 16.1 60 60 E 12 19 29.87 1012 10 16 0.00 0.00
4:53 pm 16:53 Mostly Cloudy 77 25 62 16.7 60 60 E 9 15 29.84 1010 10 16 0.00 0.00
5:53 pm 17:53 Cloudy with Nearby Thunderstorms 65 18.3 54 12.2 68 68 NW 32 52 29.87 1012 10 16 0.00 0.03
6:18 pm 18:18 Cloudy with Thunderstorms 59 15 55 13 88 88 WNW 33 54 29.91 1013 3 5 0.00 0.00
6:27 pm 18:27 Cloudy with Strong Thunderstorms 58 14.4 56 13.3 93 93 SSW 32 52 30.02 1017 3 4 0.08 2.03
6:33 pm 18:33 Cloudy with Strong Thunderstorms 57 14 55 13 94 94 SW 25 41 30.05 1018 1 2 0.00 0.00
6:39 pm 18:39 Cloudy with Strong Thunderstorms 57 13.9 55 12.8 93 93 W 24 39 30.03 1017 2 3 0.31 7.87
6:53 pm 18:53 Cloudy with Nearby Thunderstorms 57 13.9 55 12.8 93 93 NW 21 33 29.98 1015 3 5 0.39 9.91
7:00 pm 19:00 Cloudy with Nearby Thunderstorms 57 13.9 55 12.8 93 93 NW 15 24 29.95 1014 5 8 0.01 0.25
7:23 pm 19:23 Mostly Sunny 58 14.4 55 12.8 90 90 NNW 9 15 29.95 1014 10 16 0.02 0.51
7:53 pm 19:53 Sunny 59 15 53 11.7 81 81 VRB 5 7 29.94 1014 10 16 0.02 0.51
8:53 pm 20:53 Sunny 59 15 54 12.2 83 83 Calm 29.97 1015 10 16 0.00 0.00
9:53 pm 21:53 Clear 57 13.9 54 12.2 90 90 SE 7 11 29.98 1015 10 16 0.00 0.00
10:53 pm 22:53 Clear 55 12.8 52 11.1 90 90 Calm 29.99 1016 10 16 0.00 0.00
11:53 pm 23:53 Clear 53 11.7 52 11.1 96 96 W 7 11 30.04 1017 10 16 0.00 0.00

Powered by AerisWeather